owner,sensor,date,latitude,longitude,vertical_datum,sea_water_practical_salinity,qcFlag 
SCCF RECON,ioos:station:SCCF:13:1,2014-12-01T00:00:00Z,26.5255,-82.0032,1.0,-9999.0,1111122 
SCCF RECON,ioos:station:SCCF:13:1,2014-12-01T01:00:00Z,26.5255,-82.0032,1.0,-9999.0,1111122 
SCCF RECON,ioos:station:SCCF:13:1,2014-12-01T02:00:00Z,26.5255,-82.0032,1.0,-9999.0,1111122 
SCCF RECON,ioos:station:SCCF:13:1,2014-12-01T03:00:00Z,26.5255,-82.0032,1.0,-9999.0,1111122 
SCCF RECON,ioos:station:SCCF:13:1,2014-12-01T04:00:00Z,26.5255,-82.0032,1.0,-9999.0,1111122 
SCCF RECON,ioos:station:SCCF:13:1,2014-12-01T05:00:00Z,26.5255,-82.0032,1.0,-9999.0,1111122 
SCCF RECON,ioos:station:SCCF:13:1,2014-12-01T06:00:00Z,26.5255,-82.0032,1.0,-9999.0,1111122 
SCCF RECON,ioos:station:SCCF:13:1,2014-12-01T07:00:00Z,26.5255,-82.0032,1.0,-9999.0,1111122 
SCCF RECON,ioos:station:SCCF:13:1,2014-12-01T08:00:00Z,26.5255,-82.0032,1.0,-9999.0,1111122 
SCCF RECON,ioos:station:SCCF:13:1,2014-12-01T09:00:00Z,26.5255,-82.0032,1.0,-9999.0,1111122 
SCCF RECON,ioos:station:SCCF:13:1,2014-12-01T10:00:00Z,26.5255,-82.0032,1.0,-9999.0,1111122 
SCCF RECON,ioos:station:SCCF:13:1,2014-12-01T11:00:00Z,26.5255,-82.0032,1.0,-9999.0,1111122 
SCCF RECON,ioos:station:SCCF:13:1,2014-12-01T12:00:00Z,26.5255,-82.0032,1.0,-9999.0,1111122 
SCCF RECON,ioos:station:SCCF:13:1,2014-12-01T13:00:00Z,26.5255,-82.0032,1.0,-9999.0,1111122 
SCCF RECON,ioos:station:SCCF:13:1,2014-12-01T14:00:00Z,26.5255,-82.0032,1.0,-9999.0,1111122 
SCCF RECON,ioos:station:SCCF:13:1,2014-12-01T15:00:00Z,26.5255,-82.0032,1.0,-9999.0,1111122 
SCCF RECON,ioos:station:SCCF:13:1,2014-12-01T16:00:00Z,26.5255,-82.0032,1.0,-9999.0,1111122 
SCCF RECON,ioos:station:SCCF:13:1,2014-12-01T17:00:00Z,26.5255,-82.0032,1.0,-9999.0,1111122 
SCCF RECON,ioos:station:SCCF:13:1,2014-12-01T18:00:00Z,26.5255,-82.0032,1.0,-9999.0,1111122 
SCCF RECON,ioos:station:SCCF:13:1,2014-12-01T19:00:00Z,26.5255,-82.0032,1.0,-9999.0,1111122 
SCCF RECON,ioos:station:SCCF:13:1,2014-12-01T20:00:00Z,26.5255,-82.0032,1.0,-9999.0,1111122 
SCCF RECON,ioos:station:SCCF:13:1,2014-12-01T21:00:00Z,26.5255,-82.0032,1.0,-9999.0,1111122 
SCCF RECON,ioos:station:SCCF:13:1,2014-12-01T22:00:00Z,26.5255,-82.0032,1.0,-9999.0,1111122 
SCCF RECON,ioos:station:SCCF:13:1,2014-12-01T23:00:00Z,26.5255,-82.0032,1.0,-9999.0,1111122 
SCCF RECON,ioos:station:SCCF:13:1,2014-12-02T00:00:00Z,26.5255,-82.0032,1.0,-9999.0,1111122 
SCCF RECON,ioos:station:SCCF:13:1,2014-12-02T01:00:00Z,26.5255,-82.0032,1.0,-9999.0,1111122 
SCCF RECON,ioos:station:SCCF:13:1,2014-12-02T02:00:00Z,26.5255,-82.0032,1.0,-9999.0,1111122 
SCCF RECON,ioos:station:SCCF:13:1,2014-12-02T03:00:00Z,26.5255,-82.0032,1.0,-9999.0,1111122 
SCCF RECON,ioos:station:SCCF:13:1,2014-12-02T04:00:00Z,26.5255,-82.0032,1.0,-9999.0,1111122 
SCCF RECON,ioos:station:SCCF:13:1,2014-12-02T05:00:00Z,26.5255,-82.0032,1.0,-9999.0,1111122 
SCCF RECON,ioos:station:SCCF:13:1,2014-12-02T06:00:00Z,26.5255,-82.0032,1.0,-9999.0,1111122 
SCCF RECON,ioos:station:SCCF:13:1,2014-12-02T07:00:00Z,26.5255,-82.0032,1.0,-9999.0,1111122 
SCCF RECON,ioos:station:SCCF:13:1,2014-12-02T08:00:00Z,26.5255,-82.0032,1.0,-9999.0,1111122 
SCCF RECON,ioos:station:SCCF:13:1,2014-12-02T09:00:00Z,26.5255,-82.0032,1.0,-9999.0,1111122 
SCCF RECON,ioos:station:SCCF:13:1,2014-12-02T10:00:00Z,26.5255,-82.0032,1.0,-9999.0,1111122 
SCCF RECON,ioos:station:SCCF:13:1,2014-12-02T11:00:00Z,26.5255,-82.0032,1.0,-9999.0,1111122 
SCCF RECON,ioos:station:SCCF:13:1,2014-12-02T12:00:00Z,26.5255,-82.0032,1.0,-9999.0,1111122 
SCCF RECON,ioos:station:SCCF:13:1,2014-12-02T13:00:00Z,26.5255,-82.0032,1.0,-9999.0,1111122 
SCCF RECON,ioos:station:SCCF:13:1,2014-12-02T14:00:00Z,26.5255,-82.0032,1.0,-9999.0,1111122 
SCCF RECON,ioos:station:SCCF:13:1,2014-12-02T15:00:00Z,26.5255,-82.0032,1.0,-9999.0,1111122 
SCCF RECON,ioos:station:SCCF:13:1,2014-12-02T17:00:00Z,26.5255,-82.0032,2.78,29.3,1111122 
SCCF RECON,ioos:station:SCCF:13:1,2014-12-02T18:00:00Z,26.5255,-82.0032,2.702,29.27,1111122 
SCCF RECON,ioos:station:SCCF:13:1,2014-12-02T19:00:00Z,26.5255,-82.0032,2.63,29.3,1111122 
SCCF RECON,ioos:station:SCCF:13:1,2014-12-02T20:00:00Z,26.5255,-82.0032,2.56,27.91,1111122 
SCCF RECON,ioos:station:SCCF:13:1,2014-12-02T21:00:00Z,26.5255,-82.0032,2.537,22.71,1111122 
SCCF RECON,ioos:station:SCCF:13:1,2014-12-02T22:00:00Z,26.5255,-82.0032,2.596,20.91,1111122 
SCCF RECON,ioos:station:SCCF:13:1,2014-12-02T23:00:00Z,26.5255,-82.0032,2.68,23.14,1111122 
SCCF RECON,ioos:station:SCCF:13:1,2014-12-03T00:00:00Z,26.5255,-82.0032,2.79,25.94,1111122 
SCCF RECON,ioos:station:SCCF:13:1,2014-12-03T01:00:00Z,26.5255,-82.0032,2.854,28.32,1111122 
SCCF RECON,ioos:station:SCCF:13:1,2014-12-03T02:00:00Z,26.5255,-82.0032,2.918,29.5,1111122 
SCCF RECON,ioos:station:SCCF:13:1,2014-12-03T03:00:00Z,26.5255,-82.0032,2.952,30.38,1111122 
SCCF RECON,ioos:station:SCCF:13:1,2014-12-03T04:00:00Z,26.5255,-82.0032,2.96,30.65,1111122 
SCCF RECON,ioos:station:SCCF:13:1,2014-12-03T05:00:00Z,26.5255,-82.0032,2.881,30.65,1111122 
SCCF RECON,ioos:station:SCCF:13:1,2014-12-03T06:00:00Z,26.5255,-82.0032,2.76,30.68,1111122 
SCCF RECON,ioos:station:SCCF:13:1,2014-12-03T07:00:00Z,26.5255,-82.0032,2.62,27.19,1111122 
SCCF RECON,ioos:station:SCCF:13:1,2014-12-03T08:00:00Z,26.5255,-82.0032,2.51,23.42,1111122 
SCCF RECON,ioos:station:SCCF:13:1,2014-12-03T09:00:00Z,26.5255,-82.0032,2.41,22.67,1111122 
SCCF RECON,ioos:station:SCCF:13:1,2014-12-03T10:00:00Z,26.5255,-82.0032,2.33,21.42,1111122 
SCCF RECON,ioos:station:SCCF:13:1,2014-12-03T11:00:00Z,26.5255,-82.0032,2.33,20.91,1111122 
SCCF RECON,ioos:station:SCCF:13:1,2014-12-03T12:00:00Z,26.5255,-82.0032,2.46,19.57,1111122 
SCCF RECON,ioos:station:SCCF:13:1,2014-12-03T13:00:00Z,26.5255,-82.0032,2.588,18.94,1111122 
SCCF RECON,ioos:station:SCCF:13:1,2014-12-03T14:00:00Z,26.5255,-82.0032,2.65,21.17,1111122 
SCCF RECON,ioos:station:SCCF:13:1,2014-12-03T15:00:00Z,26.5255,-82.0032,2.7,23.65,1111122 
SCCF RECON,ioos:station:SCCF:13:1,2014-12-03T16:00:00Z,26.5255,-82.0032,2.758,26.0,1111122 
SCCF RECON,ioos:station:SCCF:13:1,2014-12-03T17:00:00Z,26.5255,-82.0032,2.772,28.22,1111122 
SCCF RECON,ioos:station:SCCF:13:1,2014-12-03T18:00:00Z,26.5255,-82.0032,2.733,28.88,1111122 
SCCF RECON,ioos:station:SCCF:13:1,2014-12-03T19:00:00Z,26.5255,-82.0032,2.665,29.2,1111122 
SCCF RECON,ioos:station:SCCF:13:1,2014-12-03T20:00:00Z,26.5255,-82.0032,2.6,29.17,1111122 
SCCF RECON,ioos:station:SCCF:13:1,2014-12-03T21:00:00Z,26.5255,-82.0032,2.53,25.86,1111122 
SCCF RECON,ioos:station:SCCF:13:1,2014-12-03T22:00:00Z,26.5255,-82.0032,2.502,19.98,1111122 
SCCF RECON,ioos:station:SCCF:13:1,2014-12-03T23:00:00Z,26.5255,-82.0032,2.568,19.15,1111122 
SCCF RECON,ioos:station:SCCF:13:1,2014-12-04T00:00:00Z,26.5255,-82.0032,2.7,23.44,1111122 
SCCF RECON,ioos:station:SCCF:13:1,2014-12-04T01:00:00Z,26.5255,-82.0032,2.81,26.94,1111122 
SCCF RECON,ioos:station:SCCF:13:1,2014-12-04T02:00:00Z,26.5255,-82.0032,2.87,27.71,1111122 
SCCF RECON,ioos:station:SCCF:13:1,2014-12-04T03:00:00Z,26.5255,-82.0032,2.929,29.72,1111122 
SCCF RECON,ioos:station:SCCF:13:1,2014-12-04T04:00:00Z,26.5255,-82.0032,2.95,30.61,1111122 
SCCF RECON,ioos:station:SCCF:13:1,2014-12-04T05:00:00Z,26.5255,-82.0032,2.918,30.77,1111122 
SCCF RECON,ioos:station:SCCF:13:1,2014-12-04T06:00:00Z,26.5255,-82.0032,2.8,30.82,1111122 
SCCF RECON,ioos:station:SCCF:13:1,2014-12-04T07:00:00Z,26.5255,-82.0032,2.66,29.61,1111122 
SCCF RECON,ioos:station:SCCF:13:1,2014-12-04T08:00:00Z,26.5255,-82.0032,2.55,23.56,1111122 
SCCF RECON,ioos:station:SCCF:13:1,2014-12-04T09:00:00Z,26.5255,-82.0032,2.45,22.42,1111122 
SCCF RECON,ioos:station:SCCF:13:1,2014-12-04T10:00:00Z,26.5255,-82.0032,2.35,20.87,1111122 
SCCF RECON,ioos:station:SCCF:13:1,2014-12-04T11:00:00Z,26.5255,-82.0032,2.28,19.91,1111122 
SCCF RECON,ioos:station:SCCF:13:1,2014-12-04T12:00:00Z,26.5255,-82.0032,2.28,19.55,1111122 
SCCF RECON,ioos:station:SCCF:13:1,2014-12-04T13:00:00Z,26.5255,-82.0032,2.43,18.47,1111122 
SCCF RECON,ioos:station:SCCF:13:1,2014-12-04T14:00:00Z,26.5255,-82.0032,2.56,17.75,1111122 
SCCF RECON,ioos:station:SCCF:13:1,2014-12-04T15:00:00Z,26.5255,-82.0032,2.63,20.02,1111122 
SCCF RECON,ioos:station:SCCF:13:1,2014-12-04T16:00:00Z,26.5255,-82.0032,2.68,22.97,1111122 
SCCF RECON,ioos:station:SCCF:13:1,2014-12-04T17:00:00Z,26.5255,-82.0032,2.718,25.98,1111122 
SCCF RECON,ioos:station:SCCF:13:1,2014-12-04T18:00:00Z,26.5255,-82.0032,2.7,28.19,1111122 
SCCF RECON,ioos:station:SCCF:13:1,2014-12-04T19:00:00Z,26.5255,-82.0032,2.655,27.93,1111122 
SCCF RECON,ioos:station:SCCF:13:1,2014-12-04T20:00:00Z,26.5255,-82.0032,2.61,28.41,1111122 
SCCF RECON,ioos:station:SCCF:13:1,2014-12-04T21:00:00Z,26.5255,-82.0032,2.561,28.39,1111122 
SCCF RECON,ioos:station:SCCF:13:1,2014-12-04T22:00:00Z,26.5255,-82.0032,2.51,26.14,1111122 
SCCF RECON,ioos:station:SCCF:13:1,2014-12-04T23:00:00Z,26.5255,-82.0032,2.487,19.66,1111122 
SCCF RECON,ioos:station:SCCF:13:1,2014-12-05T00:00:00Z,26.5255,-82.0032,2.58,19.74,1111122 
SCCF RECON,ioos:station:SCCF:13:1,2014-12-05T01:00:00Z,26.5255,-82.0032,2.709,24.62,1111122 
SCCF RECON,ioos:station:SCCF:13:1,2014-12-05T02:00:00Z,26.5255,-82.0032,2.818,27.1,1111122 
SCCF RECON,ioos:station:SCCF:13:1,2014-12-05T03:00:00Z,26.5255,-82.0032,2.872,28.36,1111122 
SCCF RECON,ioos:station:SCCF:13:1,2014-12-05T04:00:00Z,26.5255,-82.0032,2.92,29.87,1111122 
SCCF RECON,ioos:station:SCCF:13:1,2014-12-05T05:00:00Z,26.5255,-82.0032,2.93,30.58,1111122 
SCCF RECON,ioos:station:SCCF:13:1,2014-12-05T06:00:00Z,26.5255,-82.0032,2.865,30.76,1111122 
SCCF RECON,ioos:station:SCCF:13:1,2014-12-05T07:00:00Z,26.5255,-82.0032,2.74,30.7,1111122 
SCCF RECON,ioos:station:SCCF:13:1,2014-12-05T08:00:00Z,26.5255,-82.0032,2.609,28.39,1111122 
SCCF RECON,ioos:station:SCCF:13:1,2014-12-05T09:00:00Z,26.5255,-82.0032,2.501,22.45,1111122 
SCCF RECON,ioos:station:SCCF:13:1,2014-12-05T10:00:00Z,26.5255,-82.0032,2.406,22.32,1111122 
SCCF RECON,ioos:station:SCCF:13:1,2014-12-05T11:00:00Z,26.5255,-82.0032,2.312,20.66,1111122 
SCCF RECON,ioos:station:SCCF:13:1,2014-12-05T12:00:00Z,26.5255,-82.0032,2.27,19.93,1111122 
SCCF RECON,ioos:station:SCCF:13:1,2014-12-05T13:00:00Z,26.5255,-82.0032,2.37,19.37,1111122 
SCCF RECON,ioos:station:SCCF:13:1,2014-12-05T14:00:00Z,26.5255,-82.0032,2.52,18.38,1111122 
SCCF RECON,ioos:station:SCCF:13:1,2014-12-05T15:00:00Z,26.5255,-82.0032,2.614,20.24,1111122 
SCCF RECON,ioos:station:SCCF:13:1,2014-12-05T16:00:00Z,26.5255,-82.0032,2.681,22.63,1111122 
SCCF RECON,ioos:station:SCCF:13:1,2014-12-05T17:00:00Z,26.5255,-82.0032,2.758,26.06,1111122 
SCCF RECON,ioos:station:SCCF:13:1,2014-12-05T18:00:00Z,26.5255,-82.0032,2.801,28.5,1111122 
SCCF RECON,ioos:station:SCCF:13:1,2014-12-05T19:00:00Z,26.5255,-82.0032,2.809,28.7,1111122 
SCCF RECON,ioos:station:SCCF:13:1,2014-12-05T20:00:00Z,26.5255,-82.0032,2.76,29.14,1111122 
SCCF RECON,ioos:station:SCCF:13:1,2014-12-05T21:00:00Z,26.5255,-82.0032,2.7,29.33,1111122 
SCCF RECON,ioos:station:SCCF:13:1,2014-12-05T22:00:00Z,26.5255,-82.0032,2.66,29.31,1111122 
SCCF RECON,ioos:station:SCCF:13:1,2014-12-05T23:00:00Z,26.5255,-82.0032,2.639,28.05,1111122 
SCCF RECON,ioos:station:SCCF:13:1,2014-12-06T00:00:00Z,26.5255,-82.0032,2.67,26.73,1111122 
SCCF RECON,ioos:station:SCCF:13:1,2014-12-06T01:00:00Z,26.5255,-82.0032,2.779,26.73,1111122 
SCCF RECON,ioos:station:SCCF:13:1,2014-12-06T02:00:00Z,26.5255,-82.0032,2.88,27.57,1111122 
SCCF RECON,ioos:station:SCCF:13:1,2014-12-06T03:00:00Z,26.5255,-82.0032,2.95,28.13,1111122 
SCCF RECON,ioos:station:SCCF:13:1,2014-12-06T04:00:00Z,26.5255,-82.0032,2.992,29.53,1111122 
SCCF RECON,ioos:station:SCCF:13:1,2014-12-06T05:00:00Z,26.5255,-82.0032,3.019,30.99,1111122 
SCCF RECON,ioos:station:SCCF:13:1,2014-12-06T06:00:00Z,26.5255,-82.0032,2.993,31.59,1111122 
SCCF RECON,ioos:station:SCCF:13:1,2014-12-06T07:00:00Z,26.5255,-82.0032,2.9,31.39,1111122 
SCCF RECON,ioos:station:SCCF:13:1,2014-12-06T08:00:00Z,26.5255,-82.0032,2.759,30.88,1111122 
SCCF RECON,ioos:station:SCCF:13:1,2014-12-06T09:00:00Z,26.5255,-82.0032,2.639,25.49,1111122 
SCCF RECON,ioos:station:SCCF:13:1,2014-12-06T10:00:00Z,26.5255,-82.0032,2.55,25.15,1111122 
SCCF RECON,ioos:station:SCCF:13:1,2014-12-06T11:00:00Z,26.5255,-82.0032,2.443,23.36,1111122 
SCCF RECON,ioos:station:SCCF:13:1,2014-12-06T12:00:00Z,26.5255,-82.0032,2.354,22.44,1111122 
SCCF RECON,ioos:station:SCCF:13:1,2014-12-06T13:00:00Z,26.5255,-82.0032,2.31,21.37,1111122 
SCCF RECON,ioos:station:SCCF:13:1,2014-12-06T14:00:00Z,26.5255,-82.0032,2.39,20.22,1111122 
SCCF RECON,ioos:station:SCCF:13:1,2014-12-06T15:00:00Z,26.5255,-82.0032,2.545,18.85,1111122 
SCCF RECON,ioos:station:SCCF:13:1,2014-12-06T16:00:00Z,26.5255,-82.0032,2.641,19.37,1111122 
SCCF RECON,ioos:station:SCCF:13:1,2014-12-06T17:00:00Z,26.5255,-82.0032,2.7,22.22,1111122 
SCCF RECON,ioos:station:SCCF:13:1,2014-12-06T18:00:00Z,26.5255,-82.0032,2.74,24.97,1111122 
SCCF RECON,ioos:station:SCCF:13:1,2014-12-06T19:00:00Z,26.5255,-82.0032,2.758,27.82,1111122 
SCCF RECON,ioos:station:SCCF:13:1,2014-12-06T20:00:00Z,26.5255,-82.0032,2.738,28.51,1111122 
SCCF RECON,ioos:station:SCCF:13:1,2014-12-06T21:00:00Z,26.5255,-82.0032,2.663,28.71,1111122 
SCCF RECON,ioos:station:SCCF:13:1,2014-12-06T22:00:00Z,26.5255,-82.0032,2.611,28.53,1111122 
SCCF RECON,ioos:station:SCCF:13:1,2014-12-06T23:00:00Z,26.5255,-82.0032,2.56,26.77,1111122 
SCCF RECON,ioos:station:SCCF:13:1,2014-12-07T00:00:00Z,26.5255,-82.0032,2.55,24.08,1111122 
SCCF RECON,ioos:station:SCCF:13:1,2014-12-07T01:00:00Z,26.5255,-82.0032,2.591,22.09,1111122 
SCCF RECON,ioos:station:SCCF:13:1,2014-12-07T02:00:00Z,26.5255,-82.0032,2.7,22.72,1111122 
SCCF RECON,ioos:station:SCCF:13:1,2014-12-07T03:00:00Z,26.5255,-82.0032,2.8,25.99,1111122 
SCCF RECON,ioos:station:SCCF:13:1,2014-12-07T04:00:00Z,26.5255,-82.0032,2.87,26.58,1111122 
SCCF RECON,ioos:station:SCCF:13:1,2014-12-07T05:00:00Z,26.5255,-82.0032,2.91,28.45,1111122 
SCCF RECON,ioos:station:SCCF:13:1,2014-12-07T06:00:00Z,26.5255,-82.0032,2.924,29.56,1111122 
SCCF RECON,ioos:station:SCCF:13:1,2014-12-07T07:00:00Z,26.5255,-82.0032,2.87,30.48,1111122 
SCCF RECON,ioos:station:SCCF:13:1,2014-12-07T08:00:00Z,26.5255,-82.0032,2.75,30.54,1111122 
SCCF RECON,ioos:station:SCCF:13:1,2014-12-07T09:00:00Z,26.5255,-82.0032,2.617,28.65,1111122 
SCCF RECON,ioos:station:SCCF:13:1,2014-12-07T10:00:00Z,26.5255,-82.0032,2.52,25.36,1111122 
SCCF RECON,ioos:station:SCCF:13:1,2014-12-07T11:00:00Z,26.5255,-82.0032,2.421,22.65,1111122 
SCCF RECON,ioos:station:SCCF:13:1,2014-12-07T12:00:00Z,26.5255,-82.0032,2.32,20.09,1111122 
SCCF RECON,ioos:station:SCCF:13:1,2014-12-07T13:00:00Z,26.5255,-82.0032,2.248,19.97,1111122 
SCCF RECON,ioos:station:SCCF:13:1,2014-12-07T14:00:00Z,26.5255,-82.0032,2.23,18.84,1111122 
SCCF RECON,ioos:station:SCCF:13:1,2014-12-07T15:00:00Z,26.5255,-82.0032,2.345,17.85,1111122 
SCCF RECON,ioos:station:SCCF:13:1,2014-12-07T16:00:00Z,26.5255,-82.0032,2.49,16.89,1111122 
SCCF RECON,ioos:station:SCCF:13:1,2014-12-07T17:00:00Z,26.5255,-82.0032,2.57,18.39,1111122 
SCCF RECON,ioos:station:SCCF:13:1,2014-12-07T18:00:00Z,26.5255,-82.0032,2.62,21.31,1111122 
SCCF RECON,ioos:station:SCCF:13:1,2014-12-07T19:00:00Z,26.5255,-82.0032,2.66,25.2,1111122 
SCCF RECON,ioos:station:SCCF:13:1,2014-12-07T20:00:00Z,26.5255,-82.0032,2.668,27.41,1111122 
SCCF RECON,ioos:station:SCCF:13:1,2014-12-07T21:00:00Z,26.5255,-82.0032,2.63,27.8,1111122 
SCCF RECON,ioos:station:SCCF:13:1,2014-12-07T22:00:00Z,26.5255,-82.0032,2.58,27.82,1111122 
SCCF RECON,ioos:station:SCCF:13:1,2014-12-07T23:00:00Z,26.5255,-82.0032,2.51,27.46,1111122 
SCCF RECON,ioos:station:SCCF:13:1,2014-12-08T00:00:00Z,26.5255,-82.0032,2.479,23.99,1111122 
SCCF RECON,ioos:station:SCCF:13:1,2014-12-08T01:00:00Z,26.5255,-82.0032,2.506,22.2,1111122 
SCCF RECON,ioos:station:SCCF:13:1,2014-12-08T02:00:00Z,26.5255,-82.0032,2.59,21.09,1111122 
SCCF RECON,ioos:station:SCCF:13:1,2014-12-08T03:00:00Z,26.5255,-82.0032,2.69,24.57,1111122 
SCCF RECON,ioos:station:SCCF:13:1,2014-12-08T04:00:00Z,26.5255,-82.0032,2.8,26.16,1111122 
SCCF RECON,ioos:station:SCCF:13:1,2014-12-08T05:00:00Z,26.5255,-82.0032,2.851,27.03,1111122 
SCCF RECON,ioos:station:SCCF:13:1,2014-12-08T06:00:00Z,26.5255,-82.0032,2.87,29.2,1111122 
SCCF RECON,ioos:station:SCCF:13:1,2014-12-08T07:00:00Z,26.5255,-82.0032,2.861,30.13,1111122 
SCCF RECON,ioos:station:SCCF:13:1,2014-12-08T08:00:00Z,26.5255,-82.0032,2.792,30.16,1111122 
SCCF RECON,ioos:station:SCCF:13:1,2014-12-08T09:00:00Z,26.5255,-82.0032,2.683,29.49,1111122 
SCCF RECON,ioos:station:SCCF:13:1,2014-12-08T10:00:00Z,26.5255,-82.0032,2.567,26.21,1111122 
SCCF RECON,ioos:station:SCCF:13:1,2014-12-08T11:00:00Z,26.5255,-82.0032,2.463,20.65,1111122 
SCCF RECON,ioos:station:SCCF:13:1,2014-12-08T12:00:00Z,26.5255,-82.0032,2.37,20.77,1111122 
SCCF RECON,ioos:station:SCCF:13:1,2014-12-08T13:00:00Z,26.5255,-82.0032,2.28,18.96,1111122 
SCCF RECON,ioos:station:SCCF:13:1,2014-12-08T14:00:00Z,26.5255,-82.0032,2.23,18.85,1111122 
SCCF RECON,ioos:station:SCCF:13:1,2014-12-08T15:00:00Z,26.5255,-82.0032,2.28,17.67,1111122 
SCCF RECON,ioos:station:SCCF:13:1,2014-12-08T16:00:00Z,26.5255,-82.0032,2.44,16.95,1111122 
SCCF RECON,ioos:station:SCCF:13:1,2014-12-08T17:00:00Z,26.5255,-82.0032,2.526,17.43,1111122 
SCCF RECON,ioos:station:SCCF:13:1,2014-12-08T18:00:00Z,26.5255,-82.0032,2.58,20.66,1111122 
SCCF RECON,ioos:station:SCCF:13:1,2014-12-08T19:00:00Z,26.5255,-82.0032,2.644,23.67,1111122 
SCCF RECON,ioos:station:SCCF:13:1,2014-12-08T20:00:00Z,26.5255,-82.0032,2.689,26.57,1111122 
SCCF RECON,ioos:station:SCCF:13:1,2014-12-08T21:00:00Z,26.5255,-82.0032,2.68,27.54,1111122 
SCCF RECON,ioos:station:SCCF:13:1,2014-12-08T22:00:00Z,26.5255,-82.0032,2.63,27.48,1111122 
SCCF RECON,ioos:station:SCCF:13:1,2014-12-08T23:00:00Z,26.5255,-82.0032,2.59,27.74,1111122 
SCCF RECON,ioos:station:SCCF:13:1,2014-12-09T00:00:00Z,26.5255,-82.0032,2.56,27.69,1111122 
SCCF RECON,ioos:station:SCCF:13:1,2014-12-09T01:00:00Z,26.5255,-82.0032,2.53,26.68,1111122 
SCCF RECON,ioos:station:SCCF:13:1,2014-12-09T02:00:00Z,26.5255,-82.0032,2.53,24.44,1111122 
SCCF RECON,ioos:station:SCCF:13:1,2014-12-09T03:00:00Z,26.5255,-82.0032,2.61,23.35,1111122 
SCCF RECON,ioos:station:SCCF:13:1,2014-12-09T04:00:00Z,26.5255,-82.0032,2.71,25.06,1111122 
SCCF RECON,ioos:station:SCCF:13:1,2014-12-09T05:00:00Z,26.5255,-82.0032,2.79,25.32,1111122 
SCCF RECON,ioos:station:SCCF:13:1,2014-12-09T06:00:00Z,26.5255,-82.0032,2.83,26.17,1111122 
SCCF RECON,ioos:station:SCCF:13:1,2014-12-09T07:00:00Z,26.5255,-82.0032,2.85,28.0,1111122 
SCCF RECON,ioos:station:SCCF:13:1,2014-12-09T08:00:00Z,26.5255,-82.0032,2.8,29.02,1111122 
SCCF RECON,ioos:station:SCCF:13:1,2014-12-09T09:00:00Z,26.5255,-82.0032,2.7,29.52,1111122 
SCCF RECON,ioos:station:SCCF:13:1,2014-12-09T10:00:00Z,26.5255,-82.0032,2.586,26.92,1111122 
SCCF RECON,ioos:station:SCCF:13:1,2014-12-09T11:00:00Z,26.5255,-82.0032,2.5,25.04,1111122 
SCCF RECON,ioos:station:SCCF:13:1,2014-12-09T12:00:00Z,26.5255,-82.0032,2.41,22.63,1111122 
SCCF RECON,ioos:station:SCCF:13:1,2014-12-09T13:00:00Z,26.5255,-82.0032,2.32,20.84,1111122 
SCCF RECON,ioos:station:SCCF:13:1,2014-12-09T14:00:00Z,26.5255,-82.0032,2.24,18.86,1111122 
SCCF RECON,ioos:station:SCCF:13:1,2014-12-09T15:00:00Z,26.5255,-82.0032,2.197,17.96,1111122 
SCCF RECON,ioos:station:SCCF:13:1,2014-12-09T16:00:00Z,26.5255,-82.0032,2.259,16.97,1111122 
SCCF RECON,ioos:station:SCCF:13:1,2014-12-09T17:00:00Z,26.5255,-82.0032,2.41,16.45,1111122 
SCCF RECON,ioos:station:SCCF:13:1,2014-12-09T18:00:00Z,26.5255,-82.0032,2.5,17.01,1111122 
SCCF RECON,ioos:station:SCCF:13:1,2014-12-09T19:00:00Z,26.5255,-82.0032,2.55,19.87,1111122 
SCCF RECON,ioos:station:SCCF:13:1,2014-12-09T20:00:00Z,26.5255,-82.0032,2.57,22.32,1111122 
SCCF RECON,ioos:station:SCCF:13:1,2014-12-09T21:00:00Z,26.5255,-82.0032,2.56,24.32,1111122 
SCCF RECON,ioos:station:SCCF:13:1,2014-12-09T22:00:00Z,26.5255,-82.0032,2.5,25.56,1111122 
SCCF RECON,ioos:station:SCCF:13:1,2014-12-09T23:00:00Z,26.5255,-82.0032,2.463,26.1,1111122 
SCCF RECON,ioos:station:SCCF:13:1,2014-12-10T00:00:00Z,26.5255,-82.0032,2.46,25.2,1111122 
SCCF RECON,ioos:station:SCCF:13:1,2014-12-10T01:00:00Z,26.5255,-82.0032,2.43,22.8,1111122 
SCCF RECON,ioos:station:SCCF:13:1,2014-12-10T02:00:00Z,26.5255,-82.0032,2.38,20.23,1111122 
SCCF RECON,ioos:station:SCCF:13:1,2014-12-10T03:00:00Z,26.5255,-82.0032,2.39,18.86,1111122 
SCCF RECON,ioos:station:SCCF:13:1,2014-12-10T04:00:00Z,26.5255,-82.0032,2.45,18.15,1111122 
SCCF RECON,ioos:station:SCCF:13:1,2014-12-10T05:00:00Z,26.5255,-82.0032,2.538,18.92,1111122 
SCCF RECON,ioos:station:SCCF:13:1,2014-12-10T06:00:00Z,26.5255,-82.0032,2.6,21.78,1111122 
SCCF RECON,ioos:station:SCCF:13:1,2014-12-10T07:00:00Z,26.5255,-82.0032,2.624,22.92,1111122 
SCCF RECON,ioos:station:SCCF:13:1,2014-12-10T08:00:00Z,26.5255,-82.0032,2.62,22.85,1111122 
SCCF RECON,ioos:station:SCCF:13:1,2014-12-10T09:00:00Z,26.5255,-82.0032,2.57,24.26,1111122 
SCCF RECON,ioos:station:SCCF:13:1,2014-12-10T10:00:00Z,26.5255,-82.0032,2.48,24.41,1111122 
SCCF RECON,ioos:station:SCCF:13:1,2014-12-10T11:00:00Z,26.5255,-82.0032,2.4,22.2,1111122 
SCCF RECON,ioos:station:SCCF:13:1,2014-12-10T12:00:00Z,26.5255,-82.0032,2.354,19.93,1111122 
SCCF RECON,ioos:station:SCCF:13:1,2014-12-10T13:00:00Z,26.5255,-82.0032,2.29,18.99,1111122 
SCCF RECON,ioos:station:SCCF:13:1,2014-12-10T14:00:00Z,26.5255,-82.0032,2.22,17.96,1111122 
SCCF RECON,ioos:station:SCCF:13:1,2014-12-10T15:00:00Z,26.5255,-82.0032,2.16,16.47,1111122 
SCCF RECON,ioos:station:SCCF:13:1,2014-12-10T16:00:00Z,26.5255,-82.0032,2.2,15.51,1111122 
SCCF RECON,ioos:station:SCCF:13:1,2014-12-10T17:00:00Z,26.5255,-82.0032,2.35,15.18,1111122 
SCCF RECON,ioos:station:SCCF:13:1,2014-12-10T18:00:00Z,26.5255,-82.0032,2.45,17.08,1111122 
SCCF RECON,ioos:station:SCCF:13:1,2014-12-10T19:00:00Z,26.5255,-82.0032,2.53,19.27,1111122 
SCCF RECON,ioos:station:SCCF:13:1,2014-12-10T20:00:00Z,26.5255,-82.0032,2.61,24.59,1111122 
SCCF RECON,ioos:station:SCCF:13:1,2014-12-10T21:00:00Z,26.5255,-82.0032,2.657,27.47,1111122 
SCCF RECON,ioos:station:SCCF:13:1,2014-12-10T22:00:00Z,26.5255,-82.0032,2.653,27.57,1111122 
SCCF RECON,ioos:station:SCCF:13:1,2014-12-10T23:00:00Z,26.5255,-82.0032,2.62,26.93,1111122 
SCCF RECON,ioos:station:SCCF:13:1,2014-12-11T00:00:00Z,26.5255,-82.0032,2.6,26.95,1111122 
SCCF RECON,ioos:station:SCCF:13:1,2014-12-11T01:00:00Z,26.5255,-82.0032,2.58,26.97,1111122 
SCCF RECON,ioos:station:SCCF:13:1,2014-12-11T02:00:00Z,26.5255,-82.0032,2.57,26.98,1111122 
SCCF RECON,ioos:station:SCCF:13:1,2014-12-11T03:00:00Z,26.5255,-82.0032,2.6,26.83,1111122 
SCCF RECON,ioos:station:SCCF:13:1,2014-12-11T04:00:00Z,26.5255,-82.0032,2.66,26.69,1111122 
SCCF RECON,ioos:station:SCCF:13:1,2014-12-11T05:00:00Z,26.5255,-82.0032,2.72,26.0,1111122 
SCCF RECON,ioos:station:SCCF:13:1,2014-12-11T06:00:00Z,26.5255,-82.0032,2.78,26.02,1111122 
SCCF RECON,ioos:station:SCCF:13:1,2014-12-11T07:00:00Z,26.5255,-82.0032,2.81,27.97,1111122 
SCCF RECON,ioos:station:SCCF:13:1,2014-12-11T08:00:00Z,26.5255,-82.0032,2.83,29.65,1111122 
SCCF RECON,ioos:station:SCCF:13:1,2014-12-11T09:00:00Z,26.5255,-82.0032,2.816,30.55,1111122 
SCCF RECON,ioos:station:SCCF:13:1,2014-12-11T10:00:00Z,26.5255,-82.0032,2.76,30.95,1111122 
SCCF RECON,ioos:station:SCCF:13:1,2014-12-11T11:00:00Z,26.5255,-82.0032,2.669,30.49,1111122 
SCCF RECON,ioos:station:SCCF:13:1,2014-12-11T12:00:00Z,26.5255,-82.0032,2.57,25.3,1111122 
SCCF RECON,ioos:station:SCCF:13:1,2014-12-11T13:00:00Z,26.5255,-82.0032,2.5,22.34,1111122 
SCCF RECON,ioos:station:SCCF:13:1,2014-12-11T14:00:00Z,26.5255,-82.0032,2.427,22.06,1111122 
SCCF RECON,ioos:station:SCCF:13:1,2014-12-11T15:00:00Z,26.5255,-82.0032,2.359,20.77,1111122 
SCCF RECON,ioos:station:SCCF:13:1,2014-12-11T16:00:00Z,26.5255,-82.0032,2.339,20.08,1111122 
SCCF RECON,ioos:station:SCCF:13:1,2014-12-11T17:00:00Z,26.5255,-82.0032,2.43,19.12,1111122 
SCCF RECON,ioos:station:SCCF:13:1,2014-12-11T18:00:00Z,26.5255,-82.0032,2.53,18.61,1111122 
SCCF RECON,ioos:station:SCCF:13:1,2014-12-11T19:00:00Z,26.5255,-82.0032,2.6,20.75,1111122 